Location: Arroyo Mobile Home Park
(34.3733°N, 119.3071°W)
Time: 10:08:20
(UTC+00:00)

Cosmos 1417 Rocket - Pass Details

Date: 03 August 2024
Orbit: 952 x 997 km, 83.0° (Epoch: 10 September)

Event Time Altitude Azimuth Distance (km) Brightness Sun altitude
Rises 12:08:56 0° 187° (S) 3,619 7.1 -12.1°
Reaches altitude 10° 12:11:25 10° 189° (S) 2,673 6.4 -11.7°
Maximum altitude 12:17:32 80° 276° (W) 970 4.4 -10.6°
Drops below altitude 10° 12:23:40 10° 4° (N) 2,685 7.3 -9.5°
Sets 12:26:11 0° 5° (N) 3,636 8.0 -9.0°
